RYR6NJ LIRN-LOWW

Flight info

Callsign RYR6NJ
Flight time 1h 19m
Altitude 37000
Route BEDPI DCT MOLUX DCT VAPUP DCT DIGOT DCT KOREX DCT NIVES DCT OBUTI OBUTI2W
Aircraft B738/M-SDE2E3FGHIRWXY/LB1

Departure

Time 2026-04-25 19:34
Airport Naples International Airport (LIRN)

Arrival

Time 2026-04-25 20:53
Airport Vienna International Airport (LOWW)
Time Latitude Longitude Altitude Speed Heading
2026-04-25 18:45 40.87873 14.28342 289 ft 0 kts 187°
2026-04-25 19:22 40.87874 14.28342 289 ft 2 kts 187°
2026-04-25 19:22 40.87923 14.28354 295 ft 0 kts 211°
2026-04-25 19:23 40.87924 14.28355 288 ft 2 kts 211°
2026-04-25 19:23 40.87940 14.28359 293 ft 2 kts 124°
2026-04-25 19:24 40.87945 14.28345 288 ft 0 kts 98°
2026-04-25 19:24 40.87945 14.28344 288 ft 0 kts 98°
2026-04-25 19:27 40.87945 14.28345 288 ft 0 kts 98°
2026-04-25 19:27 40.87944 14.28356 288 ft 4 kts 98°
2026-04-25 19:27 40.87952 14.28473 288 ft 13 kts 48°
2026-04-25 19:27 40.88018 14.28559 284 ft 14 kts 52°
2026-04-25 19:28 40.88079 14.28664 281 ft 16 kts 53°
2026-04-25 19:28 40.88152 14.28792 278 ft 19 kts 52°
2026-04-25 19:28 40.88237 14.28938 274 ft 20 kts 52°
2026-04-25 19:28 40.88314 14.29071 271 ft 13 kts 52°
2026-04-25 19:29 40.88371 14.29170 268 ft 14 kts 52°
2026-04-25 19:29 40.88433 14.29277 266 ft 15 kts 52°
2026-04-25 19:29 40.88500 14.29393 263 ft 16 kts 53°
2026-04-25 19:29 40.88571 14.29517 259 ft 18 kts 53°
2026-04-25 19:30 40.88649 14.29649 255 ft 19 kts 52°
2026-04-25 19:30 40.88731 14.29792 251 ft 20 kts 52°
2026-04-25 19:30 40.88820 14.29945 246 ft 22 kts 53°
2026-04-25 19:30 40.88910 14.30103 240 ft 20 kts 52°
2026-04-25 19:31 40.88983 14.30177 237 ft 12 kts 347°
2026-04-25 19:31 40.88999 14.30168 237 ft 0 kts 326°
2026-04-25 19:32 40.89008 14.30161 237 ft 5 kts 327°
2026-04-25 19:32 40.89041 14.30134 237 ft 11 kts 328°
2026-04-25 19:33 40.89049 14.30018 239 ft 13 kts 236°
2026-04-25 19:33 40.88892 14.29688 250 ft 80 kts 238°
2026-04-25 19:33 40.88473 14.28805 274 ft 147 kts 237°
2026-04-25 19:33 40.87867 14.27570 813 ft 163 kts 236°
2026-04-25 19:34 40.87260 14.26337 1722 ft 163 kts 237°
2026-04-25 19:34 40.86555 14.25009 2193 ft 188 kts 226°
2026-04-25 19:34 40.85369 14.24345 2966 ft 194 kts 178°
2026-04-25 19:34 40.84119 14.25003 3817 ft 197 kts 149°
2026-04-25 19:35 40.82904 14.25869 4645 ft 200 kts 157°
2026-04-25 19:35 40.81599 14.26537 5416 ft 202 kts 163°
2026-04-25 19:35 40.80233 14.27024 6145 ft 205 kts 168°
2026-04-25 19:35 40.78815 14.27381 6804 ft 208 kts 171°
2026-04-25 19:36 40.77372 14.27659 7396 ft 211 kts 173°
2026-04-25 19:36 40.75897 14.27900 7971 ft 215 kts 174°
2026-04-25 19:36 40.74403 14.28123 8583 ft 217 kts 174°
2026-04-25 19:36 40.72917 14.28507 9141 ft 221 kts 153°
2026-04-25 19:37 40.71808 14.29867 9687 ft 224 kts 117°
2026-04-25 19:37 40.71499 14.31918 9906 ft 240 kts 81°
2026-04-25 19:37 40.71831 14.34105 10358 ft 247 kts 76°
2026-04-25 19:37 40.72189 14.36338 10935 ft 251 kts 77°
2026-04-25 19:38 40.72542 14.38602 11686 ft 252 kts 77°
2026-04-25 19:38 40.72888 14.40864 12488 ft 252 kts 77°
2026-04-25 19:38 40.73534 14.42975 13177 ft 255 kts 50°
2026-04-25 19:38 40.74924 14.44472 13541 ft 275 kts 30°
2026-04-25 19:39 40.76683 14.45742 13766 ft 301 kts 27°
2026-04-25 19:39 40.78625 14.47073 13961 ft 327 kts 27°
2026-04-25 19:39 40.80717 14.48500 14262 ft 347 kts 27°
2026-04-25 19:39 40.82882 14.49991 14887 ft 354 kts 27°
2026-04-25 19:40 40.85070 14.51512 15669 ft 357 kts 27°
2026-04-25 19:40 40.87270 14.53051 16426 ft 360 kts 27°
2026-04-25 19:40 40.89498 14.54617 17131 ft 365 kts 27°
2026-04-25 19:40 40.91755 14.56209 17834 ft 370 kts 27°
2026-04-25 19:41 40.94032 14.57818 18560 ft 373 kts 27°
2026-04-25 19:41 40.96331 14.59445 19197 ft 377 kts 27°
2026-04-25 19:41 40.98653 14.61089 19847 ft 380 kts 27°
2026-04-25 19:41 40.99441 14.61648 20071 ft 380 kts 27°
2026-04-25 19:42 41.03327 14.64401 21111 ft 386 kts 27°
2026-04-25 19:42 41.05704 14.66087 21750 ft 389 kts 27°
2026-04-25 19:42 41.08154 14.67656 22323 ft 393 kts 23°
2026-04-25 19:42 41.10687 14.69059 22911 ft 396 kts 21°
2026-04-25 19:43 41.13249 14.70423 23527 ft 399 kts 21°
2026-04-25 19:43 41.15835 14.71811 24029 ft 402 kts 21°
2026-04-25 19:43 41.18438 14.73235 24508 ft 406 kts 22°
2026-04-25 19:43 41.21053 14.74687 24961 ft 409 kts 22°
2026-04-25 19:44 41.23693 14.76162 25415 ft 413 kts 22°
2026-04-25 19:44 41.26339 14.77699 25855 ft 417 kts 25°
2026-04-25 19:44 41.28946 14.79411 26281 ft 420 kts 24°
2026-04-25 19:44 41.31661 14.80887 26703 ft 422 kts 16°
2026-04-25 19:45 41.34533 14.81742 27131 ft 424 kts
2026-04-25 19:45 41.37417 14.82386 27552 ft 427 kts
2026-04-25 19:45 41.40366 14.82994 27944 ft 430 kts
2026-04-25 19:45 41.43337 14.83601 28346 ft 434 kts
2026-04-25 19:46 41.46331 14.84224 28737 ft 437 kts
2026-04-25 19:46 41.49344 14.84867 29125 ft 440 kts
2026-04-25 19:46 41.52370 14.85526 29507 ft 443 kts
2026-04-25 19:46 41.55425 14.86200 29860 ft 446 kts
2026-04-25 19:47 41.58492 14.86883 30224 ft 448 kts
2026-04-25 19:47 41.61573 14.87573 30503 ft 451 kts
2026-04-25 19:47 41.64677 14.88270 30819 ft 452 kts
2026-04-25 19:47 41.67773 14.88966 31284 ft 450 kts
2026-04-25 19:48 41.70862 14.89661 31724 ft 449 kts
2026-04-25 19:48 41.73945 14.90355 32087 ft 449 kts
2026-04-25 19:48 41.77027 14.91048 32449 ft 450 kts
2026-04-25 19:48 41.80112 14.91743 32844 ft 449 kts
2026-04-25 19:49 41.83188 14.92437 33261 ft 448 kts
2026-04-25 19:49 41.84227 14.92671 33394 ft 447 kts
2026-04-25 19:49 41.89333 14.93825 33971 ft 448 kts
2026-04-25 19:49 41.92402 14.94518 34284 ft 448 kts
2026-04-25 19:50 41.98528 14.95905 35027 ft 444 kts
2026-04-25 19:50 42.01550 14.96591 35362 ft 443 kts
2026-04-25 19:50 42.04586 14.97280 35667 ft 442 kts
2026-04-25 19:51 42.07617 14.97969 35983 ft 441 kts
2026-04-25 19:51 42.10601 14.98647 36312 ft 440 kts
2026-04-25 19:51 42.13616 14.99333 36631 ft 439 kts
2026-04-25 19:51 42.16622 15.00018 36927 ft 438 kts
2026-04-25 19:52 42.19634 15.00705 37054 ft 441 kts
2026-04-25 19:52 42.25717 15.02094 37047 ft 443 kts
2026-04-25 19:53 42.31759 15.03478 37026 ft 436 kts
2026-04-25 19:53 42.37735 15.04848 37051 ft 435 kts
2026-04-25 19:54 42.43709 15.06220 37050 ft 435 kts
2026-04-25 19:54 42.49685 15.07596 37049 ft 435 kts
2026-04-25 19:55 42.55659 15.08973 37048 ft 436 kts
2026-04-25 19:55 42.60628 15.10121 37044 ft 436 kts
2026-04-25 19:56 42.66610 15.11506 37057 ft 437 kts
2026-04-25 19:56 42.72612 15.12898 37054 ft 437 kts
2026-04-25 19:57 42.78615 15.14293 37055 ft 438 kts
2026-04-25 19:57 42.84624 15.15692 37061 ft 438 kts
2026-04-25 19:58 42.90639 15.17095 37060 ft 439 kts
2026-04-25 19:58 42.96659 15.18503 37056 ft 439 kts
2026-04-25 19:59 43.02655 15.19908 37070 ft 439 kts
2026-04-25 19:59 43.08658 15.21494 37058 ft 440 kts 11°
2026-04-25 20:00 43.14595 15.23526 37050 ft 440 kts 12°
2026-04-25 20:00 43.20526 15.25620 37058 ft 439 kts 12°
2026-04-25 20:01 43.29416 15.28691 37049 ft 439 kts 11°
2026-04-25 20:01 43.35338 15.30715 37046 ft 439 kts 11°
2026-04-25 20:02 43.41253 15.32738 37047 ft 438 kts 11°
2026-04-25 20:02 43.47171 15.34766 37042 ft 438 kts 11°
2026-04-25 20:03 43.53078 15.36796 37041 ft 437 kts 11°
2026-04-25 20:03 43.58940 15.38814 37046 ft 437 kts 11°
2026-04-25 20:04 43.64844 15.40851 37034 ft 437 kts 11°
2026-04-25 20:04 43.70740 15.42890 37036 ft 437 kts 11°
2026-04-25 20:05 43.76634 15.44932 37032 ft 437 kts 11°
2026-04-25 20:05 43.82531 15.46979 37034 ft 437 kts 11°
2026-04-25 20:06 43.88425 15.49029 37039 ft 437 kts 11°
2026-04-25 20:06 43.94317 15.51083 37056 ft 437 kts 10°
2026-04-25 20:07 44.00191 15.53134 37049 ft 438 kts 10°
2026-04-25 20:07 44.06104 15.55204 37045 ft 438 kts 10°
2026-04-25 20:08 44.12015 15.57277 37043 ft 438 kts 10°
2026-04-25 20:08 44.17938 15.59359 37043 ft 439 kts 10°
2026-04-25 20:09 44.23863 15.61446 37044 ft 439 kts 10°
2026-04-25 20:09 44.29797 15.63541 37035 ft 440 kts 10°
2026-04-25 20:10 44.35726 15.65638 37057 ft 439 kts 10°
2026-04-25 20:10 44.41631 15.67605 37038 ft 438 kts
2026-04-25 20:11 44.47625 15.69160 37037 ft 438 kts
2026-04-25 20:11 44.53616 15.70672 37043 ft 438 kts
2026-04-25 20:12 44.59610 15.72240 37041 ft 438 kts
2026-04-25 20:12 44.64628 15.73573 37049 ft 438 kts
2026-04-25 20:13 44.71602 15.75432 37041 ft 439 kts
2026-04-25 20:13 44.77595 15.77032 37044 ft 439 kts
2026-04-25 20:14 44.83568 15.78798 37037 ft 438 kts
2026-04-25 20:14 44.89517 15.80638 37040 ft 438 kts
2026-04-25 20:15 44.95474 15.82466 37024 ft 438 kts
2026-04-25 20:15 45.01421 15.84279 37015 ft 438 kts
2026-04-25 20:16 45.07355 15.86089 37026 ft 439 kts
2026-04-25 20:16 45.13334 15.87917 37008 ft 440 kts
2026-04-25 20:17 45.19328 15.89755 37000 ft 440 kts
2026-04-25 20:17 45.25316 15.91599 37012 ft 441 kts
2026-04-25 20:18 45.31312 15.93469 36997 ft 441 kts
2026-04-25 20:18 45.37300 15.95344 36990 ft 441 kts
2026-04-25 20:19 45.43289 15.97222 36991 ft 440 kts
2026-04-25 20:19 45.49276 15.99103 36993 ft 441 kts
2026-04-25 20:20 45.55080 16.00930 36983 ft 440 kts
2026-04-25 20:20 45.61064 16.02817 36980 ft 440 kts
2026-04-25 20:21 45.67039 16.04706 36984 ft 439 kts
2026-04-25 20:21 45.73000 16.06594 36993 ft 439 kts
2026-04-25 20:22 45.76991 16.07861 36996 ft 439 kts
2026-04-25 20:22 45.84916 16.10381 36983 ft 435 kts
2026-04-25 20:23 45.87848 16.11319 36689 ft 429 kts
2026-04-25 20:23 45.90757 16.12248 36442 ft 429 kts
2026-04-25 20:23 45.93681 16.13180 36192 ft 432 kts
2026-04-25 20:23 45.96620 16.14117 36078 ft 431 kts
2026-04-25 20:24 46.02440 16.15980 36132 ft 433 kts
2026-04-25 20:24 46.05393 16.16925 36301 ft 437 kts
2026-04-25 20:24 46.08382 16.17882 36345 ft 441 kts
2026-04-25 20:25 46.14313 16.19797 36144 ft 428 kts
2026-04-25 20:25 46.17203 16.20733 35880 ft 424 kts
2026-04-25 20:25 46.20090 16.21564 35633 ft 419 kts
2026-04-25 20:26 46.22927 16.21670 35234 ft 407 kts 348°
2026-04-25 20:26 46.25721 16.21235 34879 ft 402 kts 347°
2026-04-25 20:26 46.28487 16.20765 34489 ft 399 kts 347°
2026-04-25 20:26 46.31233 16.20298 34101 ft 397 kts 347°
2026-04-25 20:27 46.33977 16.19841 33644 ft 396 kts 348°
2026-04-25 20:27 46.36704 16.19399 33238 ft 393 kts 348°
2026-04-25 20:27 46.39417 16.18968 32845 ft 391 kts 348°
2026-04-25 20:27 46.42113 16.18546 32451 ft 388 kts 348°
2026-04-25 20:28 46.44791 16.18129 32083 ft 386 kts 348°
2026-04-25 20:28 46.47451 16.17716 31704 ft 384 kts 348°
2026-04-25 20:28 46.50101 16.17305 31318 ft 382 kts 348°
2026-04-25 20:28 46.52731 16.16896 30948 ft 380 kts 348°
2026-04-25 20:29 46.55320 16.16494 30590 ft 378 kts 348°
2026-04-25 20:29 46.57967 16.16083 30197 ft 377 kts 347°
2026-04-25 20:29 46.60563 16.15678 29790 ft 375 kts 348°
2026-04-25 20:29 46.63118 16.15280 29377 ft 372 kts 348°
2026-04-25 20:30 46.65686 16.14880 28992 ft 369 kts 348°
2026-04-25 20:30 46.68231 16.14483 28591 ft 366 kts 348°
2026-04-25 20:30 46.70755 16.14089 28196 ft 363 kts 348°
2026-04-25 20:30 46.73260 16.13698 27824 ft 360 kts 348°
2026-04-25 20:31 46.75743 16.13309 27443 ft 358 kts 348°
2026-04-25 20:31 46.78205 16.12923 27082 ft 355 kts 348°
2026-04-25 20:31 46.80650 16.12539 26705 ft 352 kts 348°
2026-04-25 20:31 46.83084 16.12157 26342 ft 350 kts 348°
2026-04-25 20:32 46.85497 16.11777 25986 ft 348 kts 348°
2026-04-25 20:32 46.87896 16.11399 25628 ft 346 kts 348°
2026-04-25 20:32 46.90281 16.11024 25267 ft 344 kts 348°
2026-04-25 20:32 46.92652 16.10650 24912 ft 341 kts 349°
2026-04-25 20:33 46.95005 16.10278 24566 ft 339 kts 349°
2026-04-25 20:33 46.97347 16.09908 24207 ft 338 kts 349°
2026-04-25 20:33 46.99679 16.09540 23845 ft 336 kts 349°
2026-04-25 20:33 47.00451 16.09417 23729 ft 336 kts 349°
2026-04-25 20:34 47.04294 16.08809 23078 ft 333 kts 349°
2026-04-25 20:34 47.06611 16.08862 22641 ft 336 kts
2026-04-25 20:34 47.08865 16.09858 21779 ft 346 kts 19°
2026-04-25 20:34 47.11037 16.11532 20828 ft 357 kts 26°
2026-04-25 20:35 47.13131 16.13369 20605 ft 342 kts 27°
2026-04-25 20:35 47.15138 16.15177 20084 ft 337 kts 27°
2026-04-25 20:35 47.17125 16.16964 19360 ft 341 kts 27°
2026-04-25 20:35 47.19153 16.18777 18788 ft 342 kts 27°
2026-04-25 20:36 47.21176 16.20579 18397 ft 337 kts 27°
2026-04-25 20:36 47.23162 16.22343 18113 ft 329 kts 27°
2026-04-25 20:36 47.25106 16.24066 17655 ft 324 kts 26°
2026-04-25 20:36 47.27031 16.25767 17137 ft 322 kts 26°
2026-04-25 20:37 47.28943 16.27456 16672 ft 318 kts 26°
2026-04-25 20:37 47.30831 16.29124 16212 ft 314 kts 26°
2026-04-25 20:37 47.32686 16.30763 15858 ft 307 kts 25°
2026-04-25 20:37 47.34499 16.32367 15526 ft 300 kts 25°
2026-04-25 20:38 47.36270 16.33935 15223 ft 294 kts 25°
2026-04-25 20:38 47.38011 16.35477 14930 ft 291 kts 25°
2026-04-25 20:38 47.39759 16.37021 14635 ft 296 kts 25°
2026-04-25 20:38 47.41540 16.38594 14329 ft 301 kts 25°
2026-04-25 20:39 47.43348 16.40193 14028 ft 305 kts 25°
2026-04-25 20:39 47.45170 16.41810 13681 ft 306 kts 25°
2026-04-25 20:39 47.46991 16.43428 13333 ft 304 kts 26°
2026-04-25 20:39 47.47579 16.43952 13226 ft 303 kts 26°
2026-04-25 20:40 47.50567 16.46613 12687 ft 300 kts 26°
2026-04-25 20:40 47.52374 16.48223 12358 ft 298 kts 26°
2026-04-25 20:40 47.54120 16.49781 12055 ft 296 kts 26°
2026-04-25 20:40 47.55879 16.51351 11741 ft 294 kts 27°
2026-04-25 20:41 47.57627 16.52911 11437 ft 292 kts 27°
2026-04-25 20:41 47.59365 16.54465 11133 ft 291 kts 27°
2026-04-25 20:41 47.61092 16.56009 10836 ft 289 kts 27°
2026-04-25 20:41 47.62807 16.57545 10529 ft 287 kts 27°
2026-04-25 20:42 47.64510 16.59070 10238 ft 285 kts 27°
2026-04-25 20:42 47.66206 16.60590 9933 ft 284 kts 27°
2026-04-25 20:42 47.67899 16.62107 9610 ft 283 kts 28°
2026-04-25 20:42 47.69578 16.63615 9304 ft 282 kts 28°
2026-04-25 20:43 47.70712 16.64634 9089 ft 281 kts 28°
2026-04-25 20:43 47.72381 16.66134 8792 ft 279 kts 28°
2026-04-25 20:43 47.74028 16.67616 8493 ft 278 kts 28°
2026-04-25 20:43 47.75668 16.69092 8205 ft 275 kts 28°
2026-04-25 20:44 47.77284 16.70548 7922 ft 273 kts 28°
2026-04-25 20:44 47.78925 16.72028 7628 ft 271 kts 28°
2026-04-25 20:44 47.80508 16.73457 7355 ft 269 kts 28°
2026-04-25 20:44 47.82099 16.74894 7081 ft 267 kts 28°
2026-04-25 20:45 47.83672 16.76314 6739 ft 266 kts 28°
2026-04-25 20:45 47.85251 16.77742 6435 ft 262 kts 28°
2026-04-25 20:45 47.86805 16.79149 6145 ft 261 kts 28°
2026-04-25 20:45 47.88351 16.80550 5856 ft 260 kts 28°
2026-04-25 20:46 47.89889 16.81944 5565 ft 258 kts 28°
2026-04-25 20:46 47.91405 16.83319 5421 ft 251 kts 27°
2026-04-25 20:46 47.92873 16.84652 5299 ft 243 kts 27°
2026-04-25 20:46 47.94405 16.85450 5182 ft 228 kts 359°
2026-04-25 20:47 47.95926 16.85156 5123 ft 216 kts 348°
2026-04-25 20:47 47.97357 16.84701 5071 ft 204 kts 333°
2026-04-25 20:47 47.98469 16.83455 5094 ft 201 kts 316°
2026-04-25 20:47 47.99612 16.82079 4589 ft 220 kts 326°
2026-04-25 20:48 48.00888 16.80827 4196 ft 219 kts 325°
2026-04-25 20:48 48.02116 16.79607 3955 ft 206 kts 325°
2026-04-25 20:48 48.03274 16.78460 3669 ft 194 kts 325°
2026-04-25 20:48 48.04309 16.77262 3414 ft 182 kts 308°
2026-04-25 20:49 48.04946 16.75703 3211 ft 170 kts 302°
2026-04-25 20:49 48.05512 16.74204 3009 ft 162 kts 299°
2026-04-25 20:49 48.06016 16.72714 2790 ft 160 kts 297°
2026-04-25 20:49 48.06507 16.71206 2580 ft 162 kts 297°
2026-04-25 20:50 48.06984 16.69725 2365 ft 153 kts 298°
2026-04-25 20:50 48.07432 16.68339 2165 ft 144 kts 298°
2026-04-25 20:50 48.07854 16.67031 2000 ft 135 kts 298°
2026-04-25 20:50 48.08252 16.65797 1826 ft 132 kts 297°
2026-04-25 20:51 48.08650 16.64566 1637 ft 128 kts 297°
2026-04-25 20:51 48.09027 16.63393 1454 ft 126 kts 296°
2026-04-25 20:51 48.09419 16.62183 1303 ft 134 kts 296°
2026-04-25 20:51 48.09827 16.60926 1145 ft 135 kts 295°
2026-04-25 20:52 48.10231 16.59656 990 ft 135 kts 295°
2026-04-25 20:52 48.10497 16.58814 837 ft 135 kts 295°
2026-04-25 20:52 48.11048 16.57122 622 ft 132 kts 295°
2026-04-25 20:52 48.11395 16.56053 624 ft 94 kts 296°
2026-04-25 20:53 48.11629 16.55394 624 ft 51 kts 309°
2026-04-25 20:53 48.11746 16.55220 610 ft 6 kts 316°
2026-04-25 20:53 48.11780 16.55173 610 ft 8 kts 316°
2026-04-25 20:53 48.11826 16.55141 612 ft 6 kts 346°
2026-04-25 20:54 48.11853 16.55137 614 ft 0 kts
2026-04-25 20:58 48.11854 16.55138 610 ft 1 kts 13°
2026-04-25 20:58 48.11881 16.55193 613 ft 10 kts 93°
2026-04-25 20:59 48.11857 16.55285 616 ft 10 kts 116°
2026-04-25 20:59 48.11831 16.55376 623 ft 9 kts 97°
2026-04-25 20:59 48.11842 16.55412 614 ft 0 kts 42°
2026-04-25 21:00 48.11871 16.55598 617 ft 8 kts 41°
2026-04-25 21:01 48.11910 16.55620 619 ft 3 kts 25°
2026-04-25 21:01 48.11923 16.55630 620 ft 1 kts 26°
2026-04-25 21:01 48.11926 16.55632 618 ft 0 kts 26°